FENGYUN 1C DEB

Satellite information

Favourite Embed

Satellite Type and Status

DEBRISIN ORBIT

Key statistics

Satellite FENGYUN 1C DEB at a glance.

Uptime

9554

Days in orbit

Revolutions

≈ 14.2

Per day

Orbit

SSO

Sun Synchronous Orbit

Inclination

98.8

Latest

Satellite identification and parameters

Extended collection of information and parameters for FENGYUN 1C DEB.

Object identification

Identified? True

Debris? True

Object name: FENGYUN 1C DEB

International designator: 1999-025AKV

Object number (NORAD): 30555

Object ID (CCSDS): 30555

Country: PEOPLES REPUBLIC OF CHINA (PRC)

Current information (Y/N): Y

RCS size: SMALL

Orbital parameters

Period: 101.423 minutes

Inclination: 98.7702 deg

SMA: 7204.171 km

Apoapsis: 857.125 km

Periapsis: 794.946 km

RAAN: 241.7163 deg

Eccentricy: 0.0043155

Argument of periapsis: 16.2549 deg

Mean anomaly: 98.6705 deg

Mean motion: 14.19798667 rev/day

Mean motion (dot): 0.00001694 rev/day2

B* drag term: 0.0008126 1/REarth

Two-line elements (TLE)

Creation date: July 5, 2025, 10:36 p.m.

Reference frame: TEME

Reference center: EARTH

Epoch: July 5, 2025, 5:13 p.m. UTC

TLE line 0: 0 FENGYUN 1C DEB

TLE line 1: 1 30555U 99025AKV 25186.71747833 .00001694 00000-0 81260-3 0 9995

TLE line 2: 2 30555 98.7702 241.7163 0043155 16.2549 98.6705 14.19798667946666

Live tracking on map

Real-time ground track for satellite FENGYUN 1C DEB.

In-orbit conjunctions

A list of the most updated potential collisions computed for object FENGYUN 1C DEB.

Target Orbit TCA Probability of collision Miss distance Type
COSMOS 1275 DEB LEO 2025-04-29 08:01:17 0.0003903112 68.0 (m) DEBRIS
CZ-6A DEB LEO 2024-09-30 16:39:17 0.0002017599 576.0 (m) DEBRIS
DMSP 5D-2 F8 (USA 26) SSO 2024-08-26 01:16:50 0.0001902456 621.0 (m) PAYLOAD
CZ-6A DEB SSO 2024-08-19 04:05:20 0.0004244723 50.0 (m) DEBRIS

Associated space launch

Chinese polar orbiting meteorological satellite

FENGYUN 1C DEB was lifted into orbit during the mission ‘Long March 4B | Feng Yun 1C’, on board a Long March 4B space rocket.

The launch took place on May 10, 1999, 1:33 a.m. from Launch Complex 7.

For more information about the launch, click the button.

Launch to space Long March 4B | Feng Yun 1C
Long March 4B | Feng Yun 1C

Agency: N/A

Status: Launch Successful

Launch date: May 10, 1999, 1:33 a.m. UTC

Rocket: Long March 4B

Launch pad: Launch Complex 7

Location: Taiyuan Satellite Launch Center, People's Republic of China

...

Latest news about this satellite

There are no fresh news available about this satellite. Check back as we update our databases every day.


Newsletter sign-up

Weekly statistics, charts and insights to help you stay on top of the space industry.